OBJECT C, 66668

Orbit data source: Space-Track

You're viewing an Uncataloged Satellite

Recently launched and/or uncataloged satellites may have evolving metadata. Metadata may include but not limited to: Owner, Maufacturer, Bus, Motor, and Mission.

OBJECT C, 66668 is a satellite in SSO that was launched on Fri, 28 Nov 2025 UTC via an FALCON 9 launch vehicle from the Air Force Western Test Range (AFWTR). Unknown objects in Earth's orbit typically refer to objects detected orbiting the Earth but have not yet been identified or cataloged. These objects could be anything from previously untracked satellites, spent rocket stages, debris from satellite collisions, or even natural meteoroids temporarily captured by Earth's gravity.

Loading next visibility...
Identifier
66668, 2025-276C
Orbit
SSO
Country
Flag of TBDTBD
Related business
None
Manufacturer
Unknown
Mission
Operational Commercial Sigint
Bus & Motor
Unknown
Mass
Unknown
Launch date (UTC)
2025-11-28 (6 months ago)
Launch vehicle
FALCON 9
Launch site
Air Force Western Test Range (AFWTR)
Object type
Unknown
Shape & HBR
Box, 0.1 m
Radar Cross Section
0.035 m²

Expand to show TLE details & history
Last TLE update: 13 hours ago

TLE from 13 hours ago
0 OBJECT C
1 66668U 25276C   26144.69456258  .00024990  00000-0  96258-3 0  9993
2 66668  97.4055 219.0699 0008188  99.2412 260.9753 15.26308145 26906
Epoch: 2026-05-24T16:40Z
TLE epoch observation values (Epoch: 2026-05-24T16:40:10.206Z)
Latitude
-0.00005°
Longitude
86.73435°
Altitude
490.845 km
Speed
7.619 km/s
True Right ascension
14h 36m 16s
True Declination
0° 00' 00"
Sunlit
Object was in full shadow at epoch
Visualization orbit readout
Latitude
Unknown
Longitude
Unknown
Altitude
Unknown
Speed
Unknown
Apparent Right ascension
Unknown
Apparent Declination
Unknown
Sunlit
N/A
Visualization observer readout
Local Sidereal Time
14:31:47
Azimuth
Unknown
Elevation
Unknown
Doppler factor
Unknown
Orbital elements
Apogee altitude
489.436 km
Perigee altitude
478.199 km
Semi-major axis
6,861.955 km
Eccentricity
0.00082
Inclination
97.4055°
RAAN
219.0699°
Arg. of periapsis
99.2412°
True anomaly
260.88265°
Mean anomaly
260.9753°
Eccentric anomaly
260.92897°
Mean motion
3.81831 °/min
Orbital period
94.28 mins
BSTAR
0.00096258
Loading maneuver chart data...
Computing Atmospheric mass density...
Loading historical data...
Loading historical data...
Loading historical data...
Loading historical data...
Loading historical data...
Loading historical data...
Loading historical data...

Documentation

Showing up to 5 results
|